sat.trackr.live / text

‹ back to catalog

STARLINK-35420

NORAD 66260 · 2025-245AC

PAYLOAD ACTIVE UNKNOWN

§ Identity

Operator
Country
US
Launch date
2025-10-29
Launch site
AFETR
Launch vehicle
Mass (kg)
RCS (m²)

Purposes: comms

External: N2YO · Heavens-Above · Gunter

§ Orbital elements

Epoch: 2026-05-25T03:13:20.222112Z

Period
94.01 min
Inclination
53.1598°
Eccentricity
0.0000982
Mean motion
15.31718183 rev/d
Perigee alt
470.0 km
Apogee alt
471.4 km
Semi-major
6,848.8 km
B*
7.2156e-4
RAAN
288.5883°
Arg perigee
102.6622°
Mean anomaly
257.4490°
Rev number
3,296

§ Raw data

STARLINK-354201 66260U 25245AC  26145.13426183  .00022105  00000+0  72156-3 0  99972 66260  53.1598 288.5883 0000982 102.6622 257.4490 15.31718183 32962

JSON: /api/v1/satellites/66260 · /tle

For live sub-satellite position, see the globe view (requires WebGL).

§ Visibility from observer

Set your observer location to see the next 7 days of passes ≥ 10°. The values pass through the URL so the page stays shareable.

No JS? Fill the form by hand. The geolocation button needs JavaScript.